Lid_Strength_Index
5 6 5 3 1 0 -1 -1 -1 -0 -1 -1 -1 -1 -1 -1 -1 -1 -1 -1 -1 -1 -1 -0 0 0 -1
6 5 6 4 3 2 1 1 1 1 1 1 1 -0 -1 -1 -1 -1 -1 -1 -1 -1 -0 -0 1 1 -1
7 6 5 4 4 2 2 2 2 -1 -1 -1 1 1 -1 -1 -1 -1 -1 -1 -1 0 0 0 1 -1 -1
8 6 5 5 4 3 1 0 -0 -1 -1 -0 1 2 1 1 -0 -1 -1 -0 1 -1 -1 1 -1 -1 -1
6 5 5 5 4 3 2 -0 -1 -1 -0 -1 -1 1 -1 2 -1 -1 -1 -1 -1 -1 -1 -1 -1 -1 -1
6 6 4 5 4 4 4 3 0 -0 -0 -0 -0 -0 -0 -0 -0 -1 -1 -1 -1 -1 -1 -1 -1 -1 -1
7 6 4 4 4 4 4 3 3 1 -0 -0 0 -0 -0 -0 -0 -0 -0 -0 -0 -0 -1 -0 -0 -1 -1
5 6 4 3 3 4 3 3 3 3 1 -0 -0 0 -0 -1 -0 0 0 0 0 -0 -0 -0 -0 -0 -1
5 6 3 3 3 4 4 4 3 4 3 -0 -0 0 0 -1 1 1 0 0 0 -0 0 -0 -0 -1 -1
5 4 4 2 2 4 3 3 4 3 3 1 -0 0 -0 -0 -0 1 1 1 1 1 1 0 0 -0 -0
2 2 3 3 3 3 3 4 4 3 2 2 -0 -0 -0 0 0 1 1 1 2 2 2 1 1 1 1
3 2 3 2 2 2 4 4 3 3 2 2 -1 -0 -0 0 0 1 1 1 2 2 3 6 8 8 8
5 4 3 3 2 3 2 3 3 2 1 -0 0 -0 0 1 1 1 1 2 2 1 6 8 10 11 11
6 6 5 4 2 1 1 1 2 1 -0 -0 0 -0 0 1 1 1 1 2 2 2 4 6 9 10 12
6 6 5 3 2 1 0 0 0 2 2 1 0 -0 0 1 1 1 1 2 3 2 2 4 8 8 13
7 8 7 7 5 2 1 0 0 2 4 5 3 1 0 0 1 1 1 1 2 3 2 3 5 9 12